Location: Unspecified
(51.0950°N, 12.9690°E)
Time: 22:46:24
(UTC+00:00)

Cosmos 2219 Rocket - Pass Details

Date: 28 October 2021
Orbit: 826 x 848 km, 71.0° (Epoch: 01 December)

Event Time Altitude Azimuth Distance (km) Brightness Sun altitude
Rises 17:06:39 0° 171° (S) 3,355 5.3 -12.7°
Reaches altitude 10° 17:09:23 10° 160° (SSE) 2,429 4.4 -13.1°
Maximum altitude 17:13:59 27° 104° (ESE) 1,541 3.0 -13.8°
Enters shadow 17:16:56 18° 61° (ENE) 1,963 3.6 -14.3°
